Year,Month,Day,Hour,Minute,Value (Times are PST for temperature in C)
2008,06,29,00,00,20.10
2008,06,29,00,01,20.10
2008,06,29,00,02,20.10
2008,06,29,00,03,20.10
2008,06,29,00,04,20.10
2008,06,29,00,05,20.10
2008,06,29,00,06,20.10
2008,06,29,00,07,20.10
2008,06,29,00,08,20.10
2008,06,29,00,09,20.10
2008,06,29,00,10,20.00
2008,06,29,00,11,20.00
2008,06,29,00,12,20.00
2008,06,29,00,13,20.00
2008,06,29,00,14,20.00
2008,06,29,00,15,19.90
2008,06,29,00,16,19.90
2008,06,29,00,17,19.90
2008,06,29,00,18,19.90
2008,06,29,00,19,19.90
2008,06,29,00,20,19.90
2008,06,29,00,21,19.80
2008,06,29,00,22,19.80
2008,06,29,00,23,19.80
2008,06,29,00,24,19.90
2008,06,29,00,25,19.90
2008,06,29,00,26,19.90
2008,06,29,00,27,19.90
2008,06,29,00,28,19.90
2008,06,29,00,29,19.90
2008,06,29,00,30,19.90
2008,06,29,00,31,19.90
2008,06,29,00,32,19.80
2008,06,29,00,33,19.80
2008,06,29,00,34,19.80
2008,06,29,00,35,19.80
2008,06,29,00,36,19.80
2008,06,29,00,37,19.80
2008,06,29,00,38,19.80
2008,06,29,00,39,19.80
2008,06,29,00,40,19.70
2008,06,29,00,41,19.70
2008,06,29,00,42,19.70
2008,06,29,00,43,19.70
2008,06,29,00,44,19.70
2008,06,29,00,45,19.70
2008,06,29,00,46,19.70
2008,06,29,00,47,19.60
2008,06,29,00,48,19.60
2008,06,29,00,49,19.60
2008,06,29,00,50,19.60
2008,06,29,00,51,19.60
2008,06,29,00,52,19.60
2008,06,29,00,53,19.60
2008,06,29,00,54,19.60
2008,06,29,00,55,19.60
2008,06,29,00,56,19.50
2008,06,29,00,57,19.50
2008,06,29,00,58,19.40
2008,06,29,00,59,19.40
2008,06,29,01,00,19.40
2008,06,29,01,01,19.40
2008,06,29,01,02,19.40
2008,06,29,01,03,19.40
2008,06,29,01,04,19.40
2008,06,29,01,05,19.40
2008,06,29,01,06,19.40
2008,06,29,01,07,19.40
2008,06,29,01,08,19.40
2008,06,29,01,09,19.40
2008,06,29,01,10,19.40
2008,06,29,01,11,19.40
2008,06,29,01,12,19.40
2008,06,29,01,13,19.40
2008,06,29,01,14,19.40
2008,06,29,01,15,19.40
2008,06,29,01,16,19.40
2008,06,29,01,17,19.40
2008,06,29,01,18,19.50
2008,06,29,01,19,19.50
2008,06,29,01,20,19.50
2008,06,29,01,21,19.60
2008,06,29,01,22,19.60
2008,06,29,01,23,19.60
2008,06,29,01,24,19.60
2008,06,29,01,25,19.60
2008,06,29,01,26,19.60
2008,06,29,01,27,19.60
2008,06,29,01,28,19.60
2008,06,29,01,29,19.60
2008,06,29,01,30,19.60
2008,06,29,01,31,19.50
2008,06,29,01,32,19.50
2008,06,29,01,33,19.50
2008,06,29,01,34,19.50
2008,06,29,01,35,19.40
2008,06,29,01,36,19.40
2008,06,29,01,37,19.40
2008,06,29,01,38,19.40
2008,06,29,01,39,19.40
2008,06,29,01,40,19.40
2008,06,29,01,41,19.30
2008,06,29,01,42,19.30
2008,06,29,01,43,19.30
2008,06,29,01,44,19.30
2008,06,29,01,45,19.30
2008,06,29,01,46,19.30
2008,06,29,01,47,19.20
2008,06,29,01,48,19.20
2008,06,29,01,49,19.20
2008,06,29,01,50,19.20
2008,06,29,01,51,19.10
2008,06,29,01,52,19.10
2008,06,29,01,53,19.10
2008,06,29,01,54,19.00
2008,06,29,01,55,19.00
2008,06,29,01,56,18.90
2008,06,29,01,57,18.90
2008,06,29,01,58,18.90
2008,06,29,01,59,18.90
2008,06,29,02,00,18.90
2008,06,29,02,01,18.90
2008,06,29,02,02,18.90
2008,06,29,02,03,18.90
2008,06,29,02,04,18.80
2008,06,29,02,05,18.80
2008,06,29,02,06,18.80
2008,06,29,02,07,18.80
2008,06,29,02,08,18.80
2008,06,29,02,09,18.70
2008,06,29,02,10,18.70
2008,06,29,02,11,18.70
2008,06,29,02,12,18.60
2008,06,29,02,13,18.60
2008,06,29,02,14,18.60
2008,06,29,02,15,18.50
2008,06,29,02,16,18.50
2008,06,29,02,17,18.50
2008,06,29,02,18,18.50
2008,06,29,02,19,18.50
2008,06,29,02,20,18.50
2008,06,29,02,21,18.50
2008,06,29,02,22,18.50
2008,06,29,02,23,18.50
2008,06,29,02,24,18.50
2008,06,29,02,25,18.50
2008,06,29,02,26,18.50
2008,06,29,02,27,18.40
2008,06,29,02,28,18.40
2008,06,29,02,29,18.40
2008,06,29,02,30,18.40
2008,06,29,02,31,18.40
2008,06,29,02,32,18.40
2008,06,29,02,33,18.40
2008,06,29,02,34,18.40
2008,06,29,02,35,18.40
2008,06,29,02,36,18.40
2008,06,29,02,37,18.40
2008,06,29,02,38,18.30
2008,06,29,02,39,18.30
2008,06,29,02,40,18.30
2008,06,29,02,41,18.30
2008,06,29,02,42,18.30
2008,06,29,02,43,18.30
2008,06,29,02,44,18.30
2008,06,29,02,45,18.30
2008,06,29,02,46,18.30
2008,06,29,02,47,18.20
2008,06,29,02,48,18.20
2008,06,29,02,49,18.20
2008,06,29,02,50,18.20
2008,06,29,02,51,18.20
2008,06,29,02,52,18.10
2008,06,29,02,53,18.10
2008,06,29,02,54,18.10
2008,06,29,02,55,18.10
2008,06,29,02,56,18.10
2008,06,29,02,57,18.10
2008,06,29,02,58,18.00
2008,06,29,02,59,18.00
2008,06,29,03,00,18.00
2008,06,29,03,01,17.90
2008,06,29,03,02,17.90
2008,06,29,03,03,17.90
2008,06,29,03,04,17.90
2008,06,29,03,05,17.90
2008,06,29,03,06,17.80
2008,06,29,03,07,17.80
2008,06,29,03,08,17.80
2008,06,29,03,09,17.80
2008,06,29,03,10,17.80
2008,06,29,03,11,17.80
2008,06,29,03,12,17.80
2008,06,29,03,13,17.80
2008,06,29,03,14,17.80
2008,06,29,03,15,17.80
2008,06,29,03,16,17.80
2008,06,29,03,17,17.80
2008,06,29,03,18,17.80
2008,06,29,03,19,17.70
2008,06,29,03,20,17.70
2008,06,29,03,21,17.70
2008,06,29,03,22,17.70
2008,06,29,03,23,17.70
2008,06,29,03,24,17.70
2008,06,29,03,25,17.70
2008,06,29,03,26,17.70
2008,06,29,03,27,17.70
2008,06,29,03,28,17.70
2008,06,29,03,29,17.70
2008,06,29,03,30,17.70
2008,06,29,03,31,17.70
2008,06,29,03,32,17.70
2008,06,29,03,33,17.70
2008,06,29,03,34,17.70
2008,06,29,03,35,17.70
2008,06,29,03,36,17.70
2008,06,29,03,37,17.70
2008,06,29,03,38,17.70
2008,06,29,03,39,17.70
2008,06,29,03,40,17.70
2008,06,29,03,41,17.70
2008,06,29,03,42,17.70
2008,06,29,03,43,17.70
2008,06,29,03,44,17.70
2008,06,29,03,45,17.70
2008,06,29,03,46,17.70
2008,06,29,03,47,17.70
2008,06,29,03,48,17.70
2008,06,29,03,49,17.70
2008,06,29,03,50,17.70
2008,06,29,03,51,17.70
2008,06,29,03,52,17.70
2008,06,29,03,53,17.60
2008,06,29,03,54,17.60
2008,06,29,03,55,17.60
2008,06,29,03,56,17.60
2008,06,29,03,57,17.60
2008,06,29,03,58,17.60
2008,06,29,03,59,17.60
2008,06,29,04,00,17.60
2008,06,29,04,01,17.60
2008,06,29,04,02,17.60
2008,06,29,04,03,17.60
2008,06,29,04,04,17.60
2008,06,29,04,05,17.50
2008,06,29,04,06,17.50
2008,06,29,04,07,17.50
2008,06,29,04,08,17.40
2008,06,29,04,09,17.40
2008,06,29,04,10,17.40
2008,06,29,04,11,17.40
2008,06,29,04,12,17.40
2008,06,29,04,13,17.40
2008,06,29,04,14,17.30
2008,06,29,04,15,17.30
2008,06,29,04,16,17.30
2008,06,29,04,17,17.30
2008,06,29,04,18,17.30
2008,06,29,04,19,17.30
2008,06,29,04,20,17.30
2008,06,29,04,21,17.30
2008,06,29,04,22,17.20
2008,06,29,04,23,17.20
2008,06,29,04,24,17.20
2008,06,29,04,25,17.20
2008,06,29,04,26,17.20
2008,06,29,04,27,17.20
2008,06,29,04,28,17.20
2008,06,29,04,29,17.20
2008,06,29,04,30,17.20
2008,06,29,04,31,17.20
2008,06,29,04,32,17.20
2008,06,29,04,33,17.20
2008,06,29,04,34,17.20
2008,06,29,04,35,17.20
2008,06,29,04,36,17.20
2008,06,29,04,37,17.20
2008,06,29,04,38,17.20
2008,06,29,04,39,17.10
2008,06,29,04,40,17.20
2008,06,29,04,41,17.20
2008,06,29,04,42,17.20
2008,06,29,04,43,17.20
2008,06,29,04,44,17.10
2008,06,29,04,45,17.10
2008,06,29,04,46,17.10
2008,06,29,04,47,17.10
2008,06,29,04,48,17.10
2008,06,29,04,49,17.10
2008,06,29,04,50,17.10
2008,06,29,04,51,17.10
2008,06,29,04,52,17.10
2008,06,29,04,53,17.10
2008,06,29,04,54,17.10
2008,06,29,04,55,17.10
2008,06,29,04,56,17.10
2008,06,29,04,57,17.00
2008,06,29,04,58,17.00
2008,06,29,04,59,17.00
2008,06,29,05,00,17.00
2008,06,29,05,01,17.00
2008,06,29,05,02,16.90
2008,06,29,05,03,16.90
2008,06,29,05,04,16.90
2008,06,29,05,05,16.90
2008,06,29,05,06,16.90
2008,06,29,05,07,16.90
2008,06,29,05,08,16.90
2008,06,29,05,09,16.90
2008,06,29,05,10,16.90
2008,06,29,05,11,16.90
2008,06,29,05,12,16.90
2008,06,29,05,13,16.90
2008,06,29,05,14,16.90
2008,06,29,05,15,16.90
2008,06,29,05,16,16.90
2008,06,29,05,17,16.90
2008,06,29,05,18,16.90
2008,06,29,05,19,16.90
2008,06,29,05,20,16.80
2008,06,29,05,21,16.90
2008,06,29,05,22,16.90
2008,06,29,05,23,16.90
2008,06,29,05,24,16.90
2008,06,29,05,25,16.90
2008,06,29,05,26,16.90
2008,06,29,05,27,16.90
2008,06,29,05,28,16.90
2008,06,29,05,29,16.90
2008,06,29,05,30,16.90
2008,06,29,05,31,16.90
2008,06,29,05,32,16.90
2008,06,29,05,33,16.90
2008,06,29,05,34,16.90
2008,06,29,05,35,16.90
2008,06,29,05,36,16.90
2008,06,29,05,37,16.90
2008,06,29,05,38,16.90
2008,06,29,05,39,16.90
2008,06,29,05,40,16.90
2008,06,29,05,41,16.90
2008,06,29,05,42,16.80
2008,06,29,05,43,16.80
2008,06,29,05,44,16.80
2008,06,29,05,45,16.80
2008,06,29,05,46,16.80
2008,06,29,05,47,16.80
2008,06,29,05,48,16.80
2008,06,29,05,49,16.80
2008,06,29,05,50,16.80
2008,06,29,05,51,16.80
2008,06,29,05,52,16.80
2008,06,29,05,53,16.80
2008,06,29,05,54,16.80
2008,06,29,05,55,16.90
2008,06,29,05,56,16.90
2008,06,29,05,57,16.90
2008,06,29,05,58,17.00
2008,06,29,05,59,17.00
2008,06,29,06,00,17.00
2008,06,29,06,01,17.10
2008,06,29,06,02,17.10
2008,06,29,06,03,17.10
2008,06,29,06,04,17.20
2008,06,29,06,05,17.20
2008,06,29,06,06,17.20
2008,06,29,06,07,17.30
2008,06,29,06,08,17.30
2008,06,29,06,09,17.30
2008,06,29,06,10,17.30
2008,06,29,06,11,17.30
2008,06,29,06,12,17.30
2008,06,29,06,13,17.30
2008,06,29,06,14,17.30
2008,06,29,06,15,17.30
2008,06,29,06,16,17.30
2008,06,29,06,17,17.40
2008,06,29,06,18,17.40
2008,06,29,06,19,17.40
2008,06,29,06,20,17.40
2008,06,29,06,21,17.50
2008,06,29,06,22,17.50
2008,06,29,06,23,17.50
2008,06,29,06,24,17.60
2008,06,29,06,25,17.60
2008,06,29,06,26,17.70
2008,06,29,06,27,17.80
2008,06,29,06,28,17.80
2008,06,29,06,29,17.90
2008,06,29,06,30,17.90
2008,06,29,06,31,18.00
2008,06,29,06,32,18.00
2008,06,29,06,33,18.10
2008,06,29,06,34,18.10
2008,06,29,06,35,18.20
2008,06,29,06,36,18.20
2008,06,29,06,37,18.30
2008,06,29,06,38,18.30
2008,06,29,06,39,18.30
2008,06,29,06,40,18.40
2008,06,29,06,41,18.40
2008,06,29,06,42,18.50
2008,06,29,06,43,18.60
2008,06,29,06,44,18.60
2008,06,29,06,45,18.70
2008,06,29,06,46,18.80
2008,06,29,06,47,18.90
2008,06,29,06,48,19.00
2008,06,29,06,49,19.00
2008,06,29,06,50,19.10
2008,06,29,06,51,19.10
2008,06,29,06,52,19.20
2008,06,29,06,53,19.20
2008,06,29,06,54,19.20
2008,06,29,06,55,19.20
2008,06,29,06,56,19.20
2008,06,29,06,57,19.20
2008,06,29,06,58,19.30
2008,06,29,06,59,19.30
2008,06,29,07,00,19.30
2008,06,29,07,01,19.30
2008,06,29,07,02,19.40
2008,06,29,07,03,19.40
2008,06,29,07,04,19.50
2008,06,29,07,05,19.60
2008,06,29,07,06,19.70
2008,06,29,07,07,19.70
2008,06,29,07,08,19.80
2008,06,29,07,09,19.80
2008,06,29,07,10,19.90
2008,06,29,07,11,19.90
2008,06,29,07,12,20.00
2008,06,29,07,13,20.00
2008,06,29,07,14,20.10
2008,06,29,07,15,20.20
2008,06,29,07,16,20.20
2008,06,29,07,17,20.30
2008,06,29,07,18,20.30
2008,06,29,07,19,20.40
2008,06,29,07,20,20.50
2008,06,29,07,21,20.60
2008,06,29,07,22,20.60
2008,06,29,07,23,20.60
2008,06,29,07,24,20.70
2008,06,29,07,25,20.70
2008,06,29,07,26,20.70
2008,06,29,07,27,20.70
2008,06,29,07,28,20.60
2008,06,29,07,29,20.60
2008,06,29,07,30,20.60
2008,06,29,07,31,20.60
2008,06,29,07,32,20.50
2008,06,29,07,33,20.50
2008,06,29,07,34,20.40
2008,06,29,07,35,20.30
2008,06,29,07,36,20.30
2008,06,29,07,37,20.20
2008,06,29,07,38,20.20
2008,06,29,07,39,20.10
2008,06,29,07,40,20.10
2008,06,29,07,41,20.10
2008,06,29,07,42,20.10
2008,06,29,07,43,20.00
2008,06,29,07,44,20.00
2008,06,29,07,45,20.00
2008,06,29,07,46,20.00
2008,06,29,07,47,19.90
2008,06,29,07,48,19.90
2008,06,29,07,49,19.90
2008,06,29,07,50,20.00
2008,06,29,07,51,20.00
2008,06,29,07,52,20.00
2008,06,29,07,53,20.00
2008,06,29,07,54,20.00
2008,06,29,07,55,20.00
2008,06,29,07,56,20.00
2008,06,29,07,57,20.00
2008,06,29,07,58,19.90
2008,06,29,07,59,20.00
2008,06,29,08,00,20.00
2008,06,29,08,01,20.10
2008,06,29,08,02,20.10
2008,06,29,08,03,20.10
2008,06,29,08,04,20.20
2008,06,29,08,05,20.20
2008,06,29,08,06,20.20
2008,06,29,08,07,20.20
2008,06,29,08,08,20.20
2008,06,29,08,09,20.30
2008,06,29,08,10,20.30
2008,06,29,08,11,20.30
2008,06,29,08,12,20.40
2008,06,29,08,13,20.40
2008,06,29,08,14,20.40
2008,06,29,08,15,20.50
2008,06,29,08,16,20.60
2008,06,29,08,17,20.60
2008,06,29,08,18,20.70
2008,06,29,08,19,20.70
2008,06,29,08,20,20.80
2008,06,29,08,21,20.90
2008,06,29,08,22,21.00
2008,06,29,08,23,21.10
2008,06,29,08,24,21.20
2008,06,29,08,25,21.30
2008,06,29,08,26,21.40
2008,06,29,08,27,21.40
2008,06,29,08,28,21.40
2008,06,29,08,29,21.40
2008,06,29,08,30,21.50
2008,06,29,08,31,21.60
2008,06,29,08,32,21.60
2008,06,29,08,33,21.60
2008,06,29,08,34,21.70
2008,06,29,08,35,21.70
2008,06,29,08,36,21.70
2008,06,29,08,37,21.70
2008,06,29,08,38,21.70
2008,06,29,08,39,21.70
2008,06,29,08,40,21.70
2008,06,29,08,41,21.80
2008,06,29,08,42,21.80
2008,06,29,08,43,21.80
2008,06,29,08,44,21.90
2008,06,29,08,45,22.00
2008,06,29,08,46,22.00
2008,06,29,08,47,22.10
2008,06,29,08,48,22.20
2008,06,29,08,49,22.30
2008,06,29,08,50,22.40
2008,06,29,08,51,22.50
2008,06,29,08,52,22.70
2008,06,29,08,53,22.80
2008,06,29,08,54,23.00
2008,06,29,08,55,23.20
2008,06,29,08,56,23.40
2008,06,29,08,57,23.50
2008,06,29,08,58,23.50
2008,06,29,08,59,23.60
2008,06,29,09,00,23.70
2008,06,29,09,01,23.80
2008,06,29,09,02,23.80
2008,06,29,09,03,23.90
2008,06,29,09,04,23.90
2008,06,29,09,05,23.90
2008,06,29,09,06,23.90
2008,06,29,09,07,23.90
2008,06,29,09,08,24.00
2008,06,29,09,09,24.00
2008,06,29,09,10,24.10
2008,06,29,09,11,24.10
2008,06,29,09,12,24.20
2008,06,29,09,13,24.20
2008,06,29,09,14,24.20
2008,06,29,09,15,24.30
2008,06,29,09,16,24.30
2008,06,29,09,17,24.30
2008,06,29,09,18,24.30
2008,06,29,09,19,24.40
2008,06,29,09,20,24.50
2008,06,29,09,21,24.50
2008,06,29,09,22,24.50
2008,06,29,09,23,24.40
2008,06,29,09,24,24.30
2008,06,29,09,25,24.30
2008,06,29,09,26,24.20
2008,06,29,09,27,24.30
2008,06,29,09,28,24.30
2008,06,29,09,29,24.30
2008,06,29,09,30,24.30
2008,06,29,09,31,24.30
2008,06,29,09,32,24.30
2008,06,29,09,33,24.40
2008,06,29,09,34,24.40
2008,06,29,09,35,24.30
2008,06,29,09,36,24.40
2008,06,29,09,37,24.40
2008,06,29,09,38,24.40
2008,06,29,09,39,24.50
2008,06,29,09,40,24.50
2008,06,29,09,41,24.60
2008,06,29,09,42,24.60
2008,06,29,09,43,24.60
2008,06,29,09,44,24.60
2008,06,29,09,45,24.50
2008,06,29,09,46,24.40
2008,06,29,09,47,24.40
2008,06,29,09,48,24.40
2008,06,29,09,49,24.40
2008,06,29,09,50,24.40
2008,06,29,09,51,24.50
2008,06,29,09,52,24.50
2008,06,29,09,53,24.60
2008,06,29,09,54,24.60
2008,06,29,09,55,24.60
2008,06,29,09,56,24.70
2008,06,29,09,57,24.70
2008,06,29,09,58,24.80
2008,06,29,09,59,24.90
2008,06,29,10,00,25.00
2008,06,29,10,01,25.00
2008,06,29,10,02,25.10
2008,06,29,10,03,25.10
2008,06,29,10,04,25.10
2008,06,29,10,05,25.10
2008,06,29,10,06,25.10
2008,06,29,10,07,25.10
2008,06,29,10,08,25.00
2008,06,29,10,09,25.00
2008,06,29,10,10,25.10
2008,06,29,10,11,25.10
2008,06,29,10,12,25.10
2008,06,29,10,13,25.10
2008,06,29,10,14,25.10
2008,06,29,10,15,25.00
2008,06,29,10,16,24.90
2008,06,29,10,17,24.90
2008,06,29,10,18,24.70
2008,06,29,10,19,24.70
2008,06,29,10,20,24.70
2008,06,29,10,21,24.70
2008,06,29,10,22,24.70
2008,06,29,10,23,24.70
2008,06,29,10,24,24.80
2008,06,29,10,25,24.80
2008,06,29,10,26,24.90
2008,06,29,10,27,24.90
2008,06,29,10,28,24.90
2008,06,29,10,29,24.90
2008,06,29,10,30,24.90
2008,06,29,10,31,24.90
2008,06,29,10,32,24.90
2008,06,29,10,33,24.80
2008,06,29,10,34,24.70
2008,06,29,10,35,24.70
2008,06,29,10,36,24.80
2008,06,29,10,37,24.90
2008,06,29,10,38,25.00
2008,06,29,10,39,25.10
2008,06,29,10,40,25.20
2008,06,29,10,41,25.20
2008,06,29,10,42,25.20
2008,06,29,10,43,25.30
2008,06,29,10,44,25.30
2008,06,29,10,45,25.30
2008,06,29,10,46,25.30
2008,06,29,10,47,25.30
2008,06,29,10,48,25.20
2008,06,29,10,49,25.20
2008,06,29,10,50,25.20
2008,06,29,10,51,25.20
2008,06,29,10,52,25.30
2008,06,29,10,53,25.30
2008,06,29,10,54,25.50
2008,06,29,10,55,25.60
2008,06,29,10,56,25.70
2008,06,29,10,57,25.80
2008,06,29,10,58,25.80
2008,06,29,10,59,25.90
2008,06,29,11,00,25.90
2008,06,29,11,01,25.90
2008,06,29,11,02,25.90
2008,06,29,11,03,25.90
2008,06,29,11,04,25.90
2008,06,29,11,05,25.90
2008,06,29,11,06,25.90
2008,06,29,11,07,26.00
2008,06,29,11,08,26.10
2008,06,29,11,09,26.00
2008,06,29,11,10,25.90
2008,06,29,11,11,26.00
2008,06,29,11,12,26.10
2008,06,29,11,13,26.20
2008,06,29,11,14,26.30
2008,06,29,11,15,26.30
2008,06,29,11,16,26.20
2008,06,29,11,17,26.10
2008,06,29,11,18,26.00
2008,06,29,11,19,26.00
2008,06,29,11,20,26.10
2008,06,29,11,21,26.20
2008,06,29,11,22,26.30
2008,06,29,11,23,26.40
2008,06,29,11,24,26.30
2008,06,29,11,25,26.30
2008,06,29,11,26,26.30
2008,06,29,11,27,26.40
2008,06,29,11,28,26.30
2008,06,29,11,29,26.40
2008,06,29,11,30,26.40
2008,06,29,11,31,26.40
2008,06,29,11,32,26.40
2008,06,29,11,33,26.50
2008,06,29,11,34,26.50
2008,06,29,11,35,26.60
2008,06,29,11,36,26.70
2008,06,29,11,37,26.80
2008,06,29,11,38,26.80
2008,06,29,11,39,26.80
2008,06,29,11,40,26.80
2008,06,29,11,41,26.70
2008,06,29,11,42,26.60
2008,06,29,11,43,26.60
2008,06,29,11,44,26.60
2008,06,29,11,45,26.60
2008,06,29,11,46,26.50
2008,06,29,11,47,26.50
2008,06,29,11,48,26.50
2008,06,29,11,49,26.40
2008,06,29,11,50,26.30
2008,06,29,11,51,26.30
2008,06,29,11,52,26.30
2008,06,29,11,53,26.30
2008,06,29,11,54,26.40
2008,06,29,11,55,26.50
2008,06,29,11,56,26.60
2008,06,29,11,57,26.70
2008,06,29,11,58,26.80
2008,06,29,11,59,26.80
2008,06,29,12,00,26.80
2008,06,29,12,01,26.80
2008,06,29,12,02,26.80
2008,06,29,12,03,26.90
2008,06,29,12,04,27.00
2008,06,29,12,05,27.10
2008,06,29,12,06,27.10
2008,06,29,12,07,27.00
2008,06,29,12,08,26.90
2008,06,29,12,09,26.80
2008,06,29,12,10,26.70
2008,06,29,12,11,26.80
2008,06,29,12,12,26.80
2008,06,29,12,13,26.80
2008,06,29,12,14,26.80
2008,06,29,12,15,26.80
2008,06,29,12,16,26.80
2008,06,29,12,17,26.70
2008,06,29,12,18,26.70
2008,06,29,12,19,26.70
2008,06,29,12,20,26.70
2008,06,29,12,21,26.80
2008,06,29,12,22,26.90
2008,06,29,12,23,26.90
2008,06,29,12,24,27.10
2008,06,29,12,25,27.20
2008,06,29,12,26,27.30
2008,06,29,12,27,27.30
2008,06,29,12,28,27.40
2008,06,29,12,29,27.50
2008,06,29,12,30,27.60
2008,06,29,12,31,27.70
2008,06,29,12,32,27.80
2008,06,29,12,33,27.80
2008,06,29,12,34,27.70
2008,06,29,12,35,27.60
2008,06,29,12,36,27.50
2008,06,29,12,37,27.50
2008,06,29,12,38,27.40
2008,06,29,12,39,27.40
2008,06,29,12,40,27.40
2008,06,29,12,41,27.40
2008,06,29,12,42,27.40
2008,06,29,12,43,27.40
2008,06,29,12,44,27.30
2008,06,29,12,45,27.30
2008,06,29,12,46,27.30
2008,06,29,12,47,27.30
2008,06,29,12,48,27.40
2008,06,29,12,49,27.40
2008,06,29,12,50,27.40
2008,06,29,12,51,27.40
2008,06,29,12,52,27.40
2008,06,29,12,53,27.40
2008,06,29,12,54,27.40
2008,06,29,12,55,27.40
2008,06,29,12,56,27.50
2008,06,29,12,57,27.60
2008,06,29,12,58,27.60
2008,06,29,12,59,27.70
2008,06,29,13,00,27.70
2008,06,29,13,01,27.80
2008,06,29,13,02,27.70
2008,06,29,13,03,27.70
2008,06,29,13,04,27.70
2008,06,29,13,05,27.70
2008,06,29,13,06,27.70
2008,06,29,13,07,27.70
2008,06,29,13,08,27.70
2008,06,29,13,09,27.60
2008,06,29,13,10,27.60
2008,06,29,13,11,27.60
2008,06,29,13,12,27.70
2008,06,29,13,13,27.90
2008,06,29,13,14,28.00
2008,06,29,13,15,28.00
2008,06,29,13,16,28.00
2008,06,29,13,17,28.00
2008,06,29,13,18,27.90
2008,06,29,13,19,27.90
2008,06,29,13,20,27.90
2008,06,29,13,21,27.90
2008,06,29,13,22,27.80
2008,06,29,13,23,27.80
2008,06,29,13,24,27.70
2008,06,29,13,25,27.70
2008,06,29,13,26,27.70
2008,06,29,13,27,27.80
2008,06,29,13,28,27.90
2008,06,29,13,29,28.00
2008,06,29,13,30,28.10
2008,06,29,13,31,28.20
2008,06,29,13,32,28.30
2008,06,29,13,33,28.40
2008,06,29,13,34,28.50
2008,06,29,13,35,28.50
2008,06,29,13,36,28.70
2008,06,29,13,37,28.80
2008,06,29,13,38,28.90
2008,06,29,13,39,28.90
2008,06,29,13,40,28.90
2008,06,29,13,41,28.90
2008,06,29,13,42,28.90
2008,06,29,13,43,28.90
2008,06,29,13,44,28.90
2008,06,29,13,45,29.00
2008,06,29,13,46,29.00
2008,06,29,13,47,28.90
2008,06,29,13,48,28.90
2008,06,29,13,49,28.80
2008,06,29,13,50,28.80
2008,06,29,13,51,28.80
2008,06,29,13,52,28.90
2008,06,29,13,53,28.80
2008,06,29,13,54,28.80
2008,06,29,13,55,28.80
2008,06,29,13,56,28.70
2008,06,29,13,57,28.80
2008,06,29,13,58,28.80
2008,06,29,13,59,28.80
2008,06,29,14,00,28.80
2008,06,29,14,01,28.90
2008,06,29,14,02,29.00
2008,06,29,14,03,29.10
2008,06,29,14,04,29.20
2008,06,29,14,05,29.30
2008,06,29,14,06,29.30
2008,06,29,14,07,29.20
2008,06,29,14,08,29.00
2008,06,29,14,09,28.90
2008,06,29,14,10,28.70
2008,06,29,14,11,28.50
2008,06,29,14,12,28.40
2008,06,29,14,13,28.20
2008,06,29,14,14,27.80
2008,06,29,14,15,27.30
2008,06,29,14,16,26.90
2008,06,29,14,17,26.60
2008,06,29,14,18,26.50
2008,06,29,14,19,26.30
2008,06,29,14,20,26.20
2008,06,29,14,21,26.00
2008,06,29,14,22,25.90
2008,06,29,14,23,25.80
2008,06,29,14,24,25.70
2008,06,29,14,25,25.60
2008,06,29,14,26,25.40
2008,06,29,14,27,25.20
2008,06,29,14,28,25.10
2008,06,29,14,29,25.00
2008,06,29,14,30,24.90
2008,06,29,14,31,24.80
2008,06,29,14,32,24.60
2008,06,29,14,33,24.50
2008,06,29,14,34,24.40
2008,06,29,14,35,24.50
2008,06,29,14,36,24.60
2008,06,29,14,37,24.70
2008,06,29,14,38,24.80
2008,06,29,14,39,24.90
2008,06,29,14,40,25.00
2008,06,29,14,41,25.00
2008,06,29,14,42,25.00
2008,06,29,14,43,25.00
2008,06,29,14,44,25.00
2008,06,29,14,45,25.00
2008,06,29,14,46,25.00
2008,06,29,14,47,25.00
2008,06,29,14,48,25.00
2008,06,29,14,49,25.00
2008,06,29,14,50,25.00
2008,06,29,14,51,25.00
2008,06,29,14,52,25.10
2008,06,29,14,53,25.10
2008,06,29,14,54,25.10
2008,06,29,14,55,25.10
2008,06,29,14,56,25.10
2008,06,29,14,57,25.20
2008,06,29,14,58,25.30
2008,06,29,14,59,25.30
2008,06,29,15,00,25.20
2008,06,29,15,01,25.30
2008,06,29,15,02,25.40
2008,06,29,15,03,25.50
2008,06,29,15,04,25.60
2008,06,29,15,05,25.70
2008,06,29,15,06,25.90
2008,06,29,15,07,25.90
2008,06,29,15,08,26.00
2008,06,29,15,09,26.10
2008,06,29,15,10,26.20
2008,06,29,15,11,26.20
2008,06,29,15,12,26.20
2008,06,29,15,13,26.30
2008,06,29,15,14,26.30
2008,06,29,15,15,26.30
2008,06,29,15,16,26.40
2008,06,29,15,17,26.50
2008,06,29,15,18,26.70
2008,06,29,15,19,26.90
2008,06,29,15,20,27.00
2008,06,29,15,21,27.00
2008,06,29,15,22,27.00
2008,06,29,15,23,27.00
2008,06,29,15,24,27.00
2008,06,29,15,25,27.10
2008,06,29,15,26,27.10
2008,06,29,15,27,27.10
2008,06,29,15,28,27.20
2008,06,29,15,29,27.30
2008,06,29,15,30,27.30
2008,06,29,15,31,27.30
2008,06,29,15,32,27.30
2008,06,29,15,33,27.30
2008,06,29,15,34,27.20
2008,06,29,15,35,27.10
2008,06,29,15,36,27.10
2008,06,29,15,37,27.10
2008,06,29,15,38,27.10
2008,06,29,15,39,27.10
2008,06,29,15,40,27.00
2008,06,29,15,41,27.00
2008,06,29,15,42,26.90
2008,06,29,15,43,26.80
2008,06,29,15,44,26.80
2008,06,29,15,45,26.90
2008,06,29,15,46,27.00
2008,06,29,15,47,27.10
2008,06,29,15,48,27.20
2008,06,29,15,49,27.20
2008,06,29,15,50,27.10
2008,06,29,15,51,27.10
2008,06,29,15,52,27.10
2008,06,29,15,53,27.20
2008,06,29,15,54,27.20
2008,06,29,15,55,27.20
2008,06,29,15,56,27.20
2008,06,29,15,57,27.20
2008,06,29,15,58,27.20
2008,06,29,15,59,27.20
2008,06,29,16,00,27.20
2008,06,29,16,01,27.20
2008,06,29,16,02,27.30
2008,06,29,16,03,27.40
2008,06,29,16,04,27.50
2008,06,29,16,05,27.60
2008,06,29,16,06,27.70
2008,06,29,16,07,27.70
2008,06,29,16,08,27.70
2008,06,29,16,09,27.80
2008,06,29,16,10,27.80
2008,06,29,16,11,27.80
2008,06,29,16,12,27.70
2008,06,29,16,13,27.70
2008,06,29,16,14,27.70
2008,06,29,16,15,27.80
2008,06,29,16,16,27.90
2008,06,29,16,17,27.80
2008,06,29,16,18,27.80
2008,06,29,16,19,27.90
2008,06,29,16,20,28.00
2008,06,29,16,21,28.00
2008,06,29,16,22,28.10
2008,06,29,16,23,28.10
2008,06,29,16,24,28.20
2008,06,29,16,25,28.20
2008,06,29,16,26,28.10
2008,06,29,16,27,28.10
2008,06,29,16,28,28.10
2008,06,29,16,29,28.10
2008,06,29,16,30,28.20
2008,06,29,16,31,28.20
2008,06,29,16,32,28.20
2008,06,29,16,33,28.20
2008,06,29,16,34,28.10
2008,06,29,16,35,28.10
2008,06,29,16,36,27.90
2008,06,29,16,37,27.70
2008,06,29,16,38,27.70
2008,06,29,16,39,27.60
2008,06,29,16,40,27.40
2008,06,29,16,41,27.30
2008,06,29,16,42,27.30
2008,06,29,16,43,27.30
2008,06,29,16,44,27.30
2008,06,29,16,45,27.40
2008,06,29,16,46,27.50
2008,06,29,16,47,27.70
2008,06,29,16,48,27.60
2008,06,29,16,49,27.60
2008,06,29,16,50,27.40
2008,06,29,16,51,27.30
2008,06,29,16,52,27.10
2008,06,29,16,53,27.00
2008,06,29,16,54,26.90
2008,06,29,16,55,26.80
2008,06,29,16,56,26.90
2008,06,29,16,57,26.90
2008,06,29,16,58,26.90
2008,06,29,16,59,26.90
2008,06,29,17,00,27.00
2008,06,29,17,01,27.00
2008,06,29,17,02,27.00
2008,06,29,17,03,27.10
2008,06,29,17,04,27.10
2008,06,29,17,05,27.10
2008,06,29,17,06,27.10
2008,06,29,17,07,27.20
2008,06,29,17,08,27.20
2008,06,29,17,09,27.30
2008,06,29,17,10,27.40
2008,06,29,17,11,27.50
2008,06,29,17,12,27.70
2008,06,29,17,13,27.80
2008,06,29,17,14,27.90
2008,06,29,17,15,28.00
2008,06,29,17,16,28.10
2008,06,29,17,17,28.20
2008,06,29,17,18,28.10
2008,06,29,17,19,28.00